This demonstration page uses our WeatherBlox Daily Observations layout. Learn more.

Left ArrowRight Arrow

39.01783, -85.05884

Hourly Observations for September 30, 2019

Temp ( °F °C ) Dew Point ( °F °C ) Humidity (%) Winds ( mph kmh ) Pressure ( in mb ) Visibility ( mi km ) Precip ( " mm )
12:52 am 00:52 Partly Cloudy 75 23.9 66 18.9 74 74 ESE 6 9 30.11 1020 10 16 0.00 0.00
1:52 am 01:52 Partly Cloudy 73 22.8 66 18.9 79 79 ESE 5 7 30.10 1019 10 16 0.00 0.00
2:52 am 02:52 Mostly Clear 73 22.8 66 18.9 79 79 Calm 30.11 1020 10 16 0.00 0.00
3:52 am 03:52 Mostly Clear 71 21.7 65 18.3 81 81 SSE 3 6 30.10 1019 10 16 0.00 0.00
4:52 am 04:52 Mostly Clear 69 20.6 65 18.3 87 87 Calm 30.10 1019 10 16 0.00 0.00
5:52 am 05:52 Partly Cloudy 70 21.1 65 18.3 84 84 Calm 30.11 1020 10 16 0.00 0.00
6:52 am 06:52 Mostly Clear 68 20 64 17.8 87 87 Calm 30.11 1020 10 16 0.00 0.00
7:52 am 07:52 Mostly Sunny 68 20 64 17.8 87 87 Calm 30.12 1020 8 13 0.00 0.00
8:52 am 08:52 Mostly Sunny 73 22.8 66 18.9 79 79 Calm 30.13 1020 9 14 0.00 0.00
9:52 am 09:52 Mostly Sunny 81 27.2 65 18.3 58 58 SW 3 6 30.15 1021 10 16 0.00 0.00
10:52 am 10:52 Mostly Sunny 87 30.6 64 17.8 46 46 Calm 30.14 1021 10 16 0.00 0.00
11:52 am 11:52 Mostly Sunny 90 32.2 63 17.2 41 41 VRB 6 9 30.13 1020 10 16 0.00 0.00
12:52 pm 12:52 Partly Cloudy 92 33.3 63 17.2 38 38 WSW 8 13 30.11 1020 10 16 0.00 0.00
1:52 pm 13:52 Mostly Cloudy 92 33.3 63 17.2 38 38 SSW 10 17 30.09 1019 10 16 0.00 0.00
2:52 pm 14:52 Partly Cloudy 90 32.2 63 17.2 41 41 WSW 6 9 30.07 1018 10 16 0.00 0.00
3:52 pm 15:52 Partly Cloudy 93 33.9 61 16.1 34 34 WSW 9 15 30.05 1018 10 16 0.00 0.00
4:52 pm 16:52 Partly Cloudy 94 34.4 62 16.7 35 35 SW 10 17 30.03 1017 10 16 0.00 0.00
5:52 pm 17:52 Mostly Cloudy 92 33.3 62 16.7 37 37 SW 7 11 30.03 1017 10 16 0.00 0.00
6:52 pm 18:52 Cloudy 89 31.7 63 17.2 42 42 WSW 5 7 30.02 1017 10 16 0.00 0.00
7:52 pm 19:52 Mostly Cloudy 85 29.4 63 17.2 48 48 SW 5 7 30.03 1017 10 16 0.00 0.00
8:52 pm 20:52 Mostly Clear 82 27.8 64 17.8 55 55 W 3 6 30.03 1017 10 16 0.00 0.00
9:52 pm 21:52 Mostly Clear 77 25 65 18.3 66 66 S 3 6 30.03 1017 9 14 0.00 0.00
10:52 pm 22:52 Clear 77 25 64 17.8 64 64 Calm 30.04 1017 9 14 0.00 0.00
11:52 pm 23:52 Clear 75 23.9 64 17.8 69 69 Calm 30.04 1017 9 14 0.00 0.00

Powered by AerisWeather